Shenzhou 21

operational
NORAD ID: 66264 Int'l Des: 2025-246 Owner: CMSEO Country: CN
LEOCIRCULAR

关于 Shenzhou 21

正在加载描述...

实时位置

正在加载3D地球...

即将过境

高度历史

Altitude vs Time

uPlot chart will show altitude changes over time

两行轨道根数

1 66264U 25246B 25308.12924882 .01014878 75815-5 64608-3 0 9994
2 66264 41.4657 249.8168 0095863 151.7950 208.8142 16.06762742 567
Epoch: Nov 4, 2025 • Age: 18 hours

当前状态

高度 229.7 km
速度 7.79 km/s
星下点 41.62°N, 28.98°W
发射日期 Oct 31, 2025
运行时间 4 days
类型 other

技术详情

分类 Payload
质量 3258.00 kg
干质量 3258.00 kg
总质量 8100.00 kg
长度 9.30 m
直径 3.20 m
跨度 17.00 m
形状 Cyl + 2 pan
制造商 CALT
平台类型 Shenzhou
阶段状态 Docked
所有者/国家 CMSEO/CN

大型星座

Loading constellations...